Time,TemperatureF,DewpointF,PressureIn,WindDirection,WindDirectionDegrees,WindSpeedMPH,WindSpeedGustMPH,Humidity,HourlyPrecipIn,Conditions,Clouds,dailyrainin,SoftwareType,DateUTC
2017-12-14 00:00:00,39.5,12.7,29.75,WSW,244,5.0,5.0,33,0.00,,,0.00,Wunderground v.1.15,2017-12-14 05:00:00,
2017-12-14 00:10:00,39.3,12.6,29.75,WSW,246,6.0,6.0,33,0.00,,,0.00,Wunderground v.1.15,2017-12-14 05:10:00,
2017-12-14 00:20:00,39.2,13.1,29.75,WSW,244,5.0,7.0,34,0.00,,,0.00,Wunderground v.1.15,2017-12-14 05:20:00,
2017-12-14 00:40:00,38.9,13.5,29.75,WSW,252,4.0,9.0,35,0.00,,,0.00,Wunderground v.1.15,2017-12-14 05:40:00,
2017-12-14 00:50:00,38.8,14.1,29.75,West,273,5.0,5.0,36,0.00,,,0.00,Wunderground v.1.15,2017-12-14 05:50:00,
2017-12-14 01:00:00,38.8,14.1,29.75,West,277,5.0,5.0,36,0.00,,,0.00,Wunderground v.1.15,2017-12-14 06:00:00,
2017-12-14 01:10:00,38.8,14.7,29.75,West,272,5.0,6.0,37,0.00,,,0.00,Wunderground v.1.15,2017-12-14 06:10:00,
2017-12-14 01:20:00,38.8,14.7,29.74,WSW,251,5.0,9.0,37,0.00,,,0.00,Wunderground v.1.15,2017-12-14 06:20:00,
2017-12-14 01:30:00,38.8,15.3,29.74,West,260,5.0,6.0,38,0.00,,,0.00,Wunderground v.1.15,2017-12-14 06:30:00,
2017-12-14 01:40:00,38.9,15.4,29.73,West,272,6.0,6.0,38,0.00,,,0.00,Wunderground v.1.15,2017-12-14 06:40:00,
2017-12-14 01:50:00,38.9,16.0,29.73,WSW,249,6.0,6.0,39,0.00,,,0.00,Wunderground v.1.15,2017-12-14 06:50:00,
2017-12-14 02:00:00,38.9,16.0,29.73,West,262,5.0,5.0,39,0.00,,,0.00,Wunderground v.1.15,2017-12-14 07:00:00,
2017-12-14 02:10:00,38.6,16.3,29.73,WNW,284,2.0,2.0,40,0.00,,,0.00,Wunderground v.1.15,2017-12-14 07:10:00,
2017-12-14 02:20:00,38.0,16.9,29.74,West,274,0.0,0.0,42,0.00,,,0.00,Wunderground v.1.15,2017-12-14 07:20:00,
2017-12-14 02:30:00,37.6,17.1,29.74,West,274,1.0,2.0,43,0.00,,,0.00,Wunderground v.1.15,2017-12-14 07:30:00,
2017-12-14 02:40:00,37.6,17.1,29.74,West,269,2.0,3.0,43,0.00,,,0.00,Wunderground v.1.15,2017-12-14 07:40:00,
2017-12-14 02:50:00,37.8,17.8,29.74,West,275,3.0,3.0,44,0.00,,,0.00,Wunderground v.1.15,2017-12-14 07:50:00,
2017-12-14 03:00:00,37.9,17.9,29.74,West,275,3.0,3.0,44,0.00,,,0.00,Wunderground v.1.15,2017-12-14 08:00:00,
2017-12-14 03:20:00,37.6,18.2,29.74,West,267,2.0,5.0,45,0.00,,,0.00,Wunderground v.1.15,2017-12-14 08:20:00,
2017-12-14 03:30:00,37.3,18.9,29.74,West,263,1.0,1.0,47,0.00,,,0.00,Wunderground v.1.15,2017-12-14 08:30:00,
2017-12-14 03:40:00,37.3,18.9,29.74,West,278,2.0,2.0,47,0.00,,,0.00,Wunderground v.1.15,2017-12-14 08:40:00,
2017-12-14 03:50:00,37.5,19.6,29.74,West,273,3.0,6.0,48,0.00,,,0.00,Wunderground v.1.15,2017-12-14 08:50:00,
2017-12-14 04:00:00,37.5,19.6,29.74,WSW,258,4.0,5.0,48,0.00,,,0.00,Wunderground v.1.15,2017-12-14 09:00:00,
2017-12-14 04:10:00,37.6,19.7,29.74,West,270,4.0,4.0,48,0.00,,,0.00,Wunderground v.1.15,2017-12-14 09:10:00,
2017-12-14 04:20:00,37.3,19.9,29.74,WNW,285,4.0,4.0,49,0.00,,,0.00,Wunderground v.1.15,2017-12-14 09:20:00,
2017-12-14 04:30:00,37.2,20.2,29.74,West,263,2.0,3.0,50,0.00,,,0.00,Wunderground v.1.15,2017-12-14 09:30:00,
2017-12-14 04:40:00,37.0,20.1,29.74,West,273,3.0,3.0,50,0.00,,,0.00,Wunderground v.1.15,2017-12-14 09:40:00,
2017-12-14 04:50:00,36.9,20.4,29.74,West,263,2.0,4.0,51,0.00,,,0.00,Wunderground v.1.15,2017-12-14 09:50:00,
2017-12-14 05:00:00,36.9,20.4,29.74,West,275,3.0,3.0,51,0.00,,,0.00,Wunderground v.1.15,2017-12-14 10:00:00,
2017-12-14 05:10:00,37.0,20.5,29.74,West,262,4.0,4.0,51,0.00,,,0.00,Wunderground v.1.15,2017-12-14 10:10:00,
2017-12-14 05:20:00,37.0,21.4,29.75,West,272,4.0,4.0,53,0.00,,,0.00,Wunderground v.1.15,2017-12-14 10:20:00,
2017-12-14 05:30:00,37.2,21.6,29.75,West,269,4.0,4.0,53,0.00,,,0.00,Wunderground v.1.15,2017-12-14 10:30:00,
2017-12-14 05:40:00,37.5,21.5,29.75,West,278,4.0,4.0,52,0.00,,,0.00,Wunderground v.1.15,2017-12-14 10:40:00,
2017-12-14 05:50:00,37.3,21.7,29.76,WNW,284,3.0,6.0,53,0.00,,,0.00,Wunderground v.1.15,2017-12-14 10:50:00,
2017-12-14 06:00:00,37.0,21.4,29.76,West,273,1.0,1.0,53,0.00,,,0.00,Wunderground v.1.15,2017-12-14 11:00:00,
2017-12-14 06:10:00,36.9,21.8,29.76,NW,306,1.0,1.0,54,0.00,,,0.00,Wunderground v.1.15,2017-12-14 11:10:00,
2017-12-14 06:20:00,36.6,21.9,29.77,WNW,286,0.0,0.0,55,0.00,,,0.00,Wunderground v.1.15,2017-12-14 11:20:00,
2017-12-14 06:30:00,36.6,21.9,29.77,West,269,0.0,2.0,55,0.00,,,0.00,Wunderground v.1.15,2017-12-14 11:30:00,
2017-12-14 06:40:00,36.5,22.3,29.77,West,269,0.0,0.0,56,0.00,,,0.00,Wunderground v.1.15,2017-12-14 11:40:00,
2017-12-14 06:50:00,35.9,22.1,29.78,West,269,0.0,0.0,57,0.00,,,0.00,Wunderground v.1.15,2017-12-14 11:50:00,
2017-12-14 07:00:00,34.9,21.6,29.78,West,269,0.0,0.0,58,0.00,,,0.00,Wunderground v.1.15,2017-12-14 12:00:00,
2017-12-14 07:10:00,33.5,21.5,29.78,West,269,0.0,0.0,61,0.00,,,0.00,Wunderground v.1.15,2017-12-14 12:10:00,
2017-12-14 07:20:00,32.9,20.9,29.79,West,269,0.0,0.0,61,0.00,,,0.00,Wunderground v.1.15,2017-12-14 12:20:00,
2017-12-14 07:30:00,32.8,20.8,29.79,West,269,0.0,0.0,61,0.00,,,0.00,Wunderground v.1.15,2017-12-14 12:30:00,
2017-12-14 07:40:00,32.7,20.7,29.80,West,269,0.0,0.0,61,0.00,,,0.00,Wunderground v.1.15,2017-12-14 12:40:00,
2017-12-14 07:50:00,32.8,20.8,29.81,West,269,0.0,0.0,61,0.00,,,0.00,Wunderground v.1.15,2017-12-14 12:50:00,
2017-12-14 08:00:00,33.5,21.5,29.81,West,269,0.0,0.0,61,0.00,,,0.00,Wunderground v.1.15,2017-12-14 13:00:00,
2017-12-14 08:10:00,34.4,21.9,29.81,South,188,1.0,1.0,60,0.00,,,0.00,Wunderground v.1.15,2017-12-14 13:10:00,
2017-12-14 08:20:00,34.9,22.4,29.82,SSW,204,2.0,2.0,60,0.00,,,0.00,Wunderground v.1.15,2017-12-14 13:20:00,
2017-12-14 08:30:00,36.3,22.9,29.82,SSW,204,1.0,1.0,58,0.00,,,0.00,Wunderground v.1.15,2017-12-14 13:30:00,
2017-12-14 08:40:00,37.6,23.3,29.83,SSW,204,0.0,0.0,56,0.00,,,0.00,Wunderground v.1.15,2017-12-14 13:40:00,
2017-12-14 08:50:00,39.5,23.3,29.83,SSW,204,0.0,3.0,52,0.00,,,0.00,Wunderground v.1.15,2017-12-14 13:50:00,
2017-12-14 09:00:00,40.9,23.2,29.83,SW,223,1.0,1.0,49,0.00,,,0.00,Wunderground v.1.15,2017-12-14 14:00:00,
2017-12-14 09:10:00,41.6,23.8,29.83,WSW,244,1.0,1.0,49,0.00,,,0.00,Wunderground v.1.15,2017-12-14 14:10:00,
2017-12-14 09:20:00,42.5,24.2,29.84,WSW,244,0.0,0.0,48,0.00,,,0.00,Wunderground v.1.15,2017-12-14 14:20:00,
2017-12-14 09:30:00,43.2,24.3,29.84,NW,322,1.0,1.0,47,0.00,,,0.00,Wunderground v.1.15,2017-12-14 14:30:00,
2017-12-14 09:40:00,44.1,24.6,29.84,SSW,200,2.0,4.0,46,0.00,,,0.00,Wunderground v.1.15,2017-12-14 14:40:00,
2017-12-14 09:50:00,44.2,25.2,29.86,South,173,2.0,2.0,47,0.00,,,0.00,Wunderground v.1.15,2017-12-14 14:50:00,
2017-12-14 10:00:00,44.6,26.1,29.86,West,259,2.0,4.0,48,0.00,,,0.00,Wunderground v.1.15,2017-12-14 15:00:00,
2017-12-14 10:10:00,45.4,25.8,29.86,West,275,2.0,2.0,46,0.00,,,0.00,Wunderground v.1.15,2017-12-14 15:10:00,
2017-12-14 10:20:00,46.5,26.8,29.87,West,276,3.0,3.0,46,0.00,,,0.00,Wunderground v.1.15,2017-12-14 15:20:00,
2017-12-14 10:30:00,47.6,27.3,29.87,SW,227,3.0,3.0,45,0.00,,,0.00,Wunderground v.1.15,2017-12-14 15:30:00,
2017-12-14 10:40:00,48.5,26.4,29.88,NW,306,2.0,6.0,42,0.00,,,0.00,Wunderground v.1.15,2017-12-14 15:40:00,
2017-12-14 10:50:00,49.1,27.0,29.87,SSW,207,2.0,4.0,42,0.00,,,0.00,Wunderground v.1.15,2017-12-14 15:50:00,
2017-12-14 11:00:00,50.2,26.2,29.87,WSW,245,2.0,3.0,39,0.00,,,0.00,Wunderground v.1.15,2017-12-14 16:00:00,
2017-12-14 11:20:00,51.3,25.9,29.87,NNE,15,1.0,1.0,37,0.00,,,0.00,Wunderground v.1.15,2017-12-14 16:20:00,
2017-12-14 11:30:00,51.9,27.1,29.87,NE,38,1.0,1.0,38,0.00,,,0.00,Wunderground v.1.15,2017-12-14 16:30:00,
2017-12-14 11:40:00,52.6,25.7,29.87,NE,38,0.0,0.0,35,0.00,,,0.00,Wunderground v.1.15,2017-12-14 16:40:00,
2017-12-14 11:50:00,53.8,26.1,29.85,NNE,33,0.0,0.0,34,0.00,,,0.00,Wunderground v.1.15,2017-12-14 16:50:00,
2017-12-14 12:00:00,54.7,25.4,29.85,NE,48,0.0,0.0,32,0.00,,,0.00,Wunderground v.1.15,2017-12-14 17:00:00,
2017-12-14 12:10:00,54.4,24.4,29.85,NE,46,0.0,1.0,31,0.00,,,0.00,Wunderground v.1.15,2017-12-14 17:10:00,
2017-12-14 12:20:00,53.8,25.3,29.85,NE,40,0.0,0.0,33,0.00,,,0.00,Wunderground v.1.15,2017-12-14 17:20:00,
2017-12-14 12:30:00,53.9,26.8,29.85,NNE,17,1.0,1.0,35,0.00,,,0.00,Wunderground v.1.15,2017-12-14 17:30:00,
2017-12-14 12:40:00,55.4,25.2,29.85,SSW,207,2.0,2.0,31,0.00,,,0.00,Wunderground v.1.15,2017-12-14 17:40:00,
2017-12-14 12:50:00,55.6,25.4,29.85,WNW,290,2.0,2.0,31,0.00,,,0.00,Wunderground v.1.15,2017-12-14 17:50:00,
2017-12-14 13:00:00,55.7,25.5,29.85,WSW,242,1.0,1.0,31,0.00,,,0.00,Wunderground v.1.15,2017-12-14 18:00:00,
2017-12-14 13:10:00,55.7,25.5,29.84,North,350,1.0,1.0,31,0.00,,,0.00,Wunderground v.1.15,2017-12-14 18:10:00,